Starlink 5762

operational
NORAD ID: 55590 Int'l Des: 2023-020 Owner: SPXS Country: US Constellation: starlink
LEOCIRCULAR

About Starlink 5762

Description loading...

Live Position

Loading 3D Globe...

Upcoming Passes

Altitude History

Altitude vs Time

uPlot chart will show altitude changes over time

Two-Line Element Set

1 55590U 23020X 26063.00001157 .00058861 00000-0 38764-2 0 9990
2 55590 43.0007 35.2176 0000526 297.4638 197.2203 15.06720746 5643
Epoch: Mar 4, 2026 • Age: 23 hours

Current Status

Altitude 551.2 km
Velocity 7.59 km/s
Sub-Earth Point -22.71°S, 94.49°E
Launch Date Feb 12, 2023
Age 3 years
Type internet

Technical Details

Classification Payload
Mass 305.00 kg
Dry Mass 290.00 kg
Total Mass 305.00 kg
Length 0.20 m
Diameter 2.80 m
Span 9.00 m
Shape Box + pan
Manufacturer SPXS
Bus Type Starlink
Phase Status In Orbit
Owner/State SPXS/US

Large Constellations

Loading constellations...